SCP
0 0 0 0 0 0 0 0 0 0 -0 -0 -0 -0 -0 0 -0 -0 0 -0 -0 -0 -0 -0 -0 -0 0 0 0 0 0 0 0 0 0 0 0 0 0 0 0 0 0 0 0 0 0 0 0 0 0 0 0 0
0 0 0 0 0 0 0 0 0 0 0 -0 -0 -0 -0 -0 -0 0 0 -0 -0 -0 0 0 -0 -0 -0 0 0 0 0 0 0 0 0 0 0 0 0 0 0 0 0 0 0 0 0 0 0 0 0 0 0 0
0 0 0 0 0 0 0 0 0 0 -0 -0 -0 -0 -0 -0 -0 0 0 0 -0 -0 -0 0 0 -0 -0 0 0 0 0 0 0 0 0 0 0 0 0 0 0 0 0 0 0 0 0 0 0 0 0 0 0 0
0 0 0 0 0 0 0 0 0 -0 -0 0 0 -0 -0 -0 -0 -0 -0 -0 -0 -0 0 0 0 0 0 0 0 0 0 0 0 0 0 0 0 0 0 0 0 0 0 0 0 0 0 0 0 0 0 0 0 0
0 0 0 0 0 0 0 0 0 0 0 0 0 0 -0 -0 -0 -0 0 -0 -0 0 0 -0 -0 0 -0 -0 0 0 0 0 0 0 0 0 0 0 0 0 0 0 0 0 0 0 0 0 0 -0 -0 -0 0 0
0 0 0 0 0 0 0 0 0 0 0 -0 -0 -0 -0 -0 -0 -0 -0 -0 0 0 0 0 0 0 -0 0 0 0 0 0 0 0 0 0 0 0 0 0 0 0 0 0 0 0 0 0 0 0 -0 -0 -0 0
0 0 0 0 0 0 0 -0 -0 -0 -0 -0 -0 -0 -0 -0 -0 0 -0 -0 0 0 0 0 0 0 0 -0 0 0 0 0 0 0 0 0 0 0 0 0 0 0 0 0 0 0 0 0 0 0 -0 -0 0 0
0 0 0 0 0 -0 -0 0 0 0 -0 -0 -0 -0 -0 0 -0 0 -0 -0 0 0 0 0 0 0 0 0 0 0 0 0 0 0 0 0 0 0 0 0 0 0 0 0 0 0 0 0 0 -0 -0 0 0 0
0 0 0 0 -0 -0 0 0 0 -0 -0 -0 -0 -0 0 -0 0 0 -0 0 0 0 0 0 0 0 0 0 -0 0 0 0 0 0 0 0 0 0 0 0 0 0 0 0 0 0 0 0 0 -0 0 0 0 0
0 0 -0 -0 -0 -0 0 0 0 -0 -0 -0 0 0 0 0 -0 0 0 0 0 0 0 0 0 0 -0 -0 0 0 0 0 0 0 0 0 0 0 0 0 0 0 0 0 0 0 0 0 0 0 0 0 0 0
0 0 -0 -0 -0 0 0 -0 -0 -0 -0 -0 -0 -0 -0 -0 0 0 0 0 0 0 0 0 -0 0 0 0 0 0 0 0 0 0 0 0 0 0 0 0 0 0 0 0 0 0 0 0 0 0 0 0 0 0
0 -0 -0 -0 -0 0 -0 -0 -0 -0 -0 -0 -0 -0 -0 0 0 0 0 0 0 0 0 0 0 0 0 -0 0 0 0 0 0 0 0 0 0 0 0 0 0 0 0 0 0 -0 -0 0 0 0 0 0 0 0
0 0 -0 -0 0 0 -0 -0 -0 -0 -0 0 0 -0 0 0 0 0 0 0 0 0 0 0 0 -0 0 0 0 0 0 0 0 0 0 0 0 0 0 0 0 0 -0 -0 -0 -0 -0 0 0 0 0 0 0 0
0 0 -0 -0 0 -0 -0 -0 -0 -0 -0 0 0 0 0 0 -0 0 0 0 0 0 -0 -0 0 0 0 0 0 0 0 0 0 0 0 0 0 -0 -0 0 0 -0 -0 -0 -0 -0 -0 -0 -0 0 0 0 0 0
-0 -0 -0 0 -0 -0 -0 -0 -0 -0 0 0 0 0 0 0 0 0 0 0 -0 0 0 0 0 0 0 0 0 0 0 0 0 0 0 0 0 0 -0 -0 -0 -0 -0 -0 -0 -0 -0 -0 -0 -0 -0 -0 -0 -0
-0 -0 0 0 -0 -0 -0 -0 -0 0 0 0 0 0 0 0 0 0 0 0 -0 0 0 0 0 0 -0 0 0 0 0 0 0 0 0 0 0 0 0 0 -0 -0 -0 -0 -0 -0 -0 -0 -0 -0 -0 -0 -0 -0
-0 0 -0 -0 -0 -0 -0 -0 -0 0 0 0 0 0 0 0 0 0 0 0 -0 -0 0 0 0 0 0 0 0 0 0 0 0 0 0 0 0 -0 0 -0 -0 -0 -0 -0 -0 -0 -0 -0 -0 -0 -0 -0 -0 -0
0 0 0 -0 -0 -0 -0 -0 0 0 0 0 0 0 0 0 0 0 0 0 -0 -0 0 0 0 0 0 0 0 0 0 0 0 0 0 0 0 0 0 -0 -0 -0 -0 -0 0 -0 -0 0 0 0 0 -0 -0 -0
0 -0 -0 -0 -0 -0 0 -0 0 0 0 0 0 0 0 0 0 0 0 0 -0 -0 0 0 0 0 -0 -0 -0 -0 -0 0 0 0 0 0 0 0 0 0 0 0 -0 0 0 -0 -0 -0 -0 0 0 0 -0 -0
-0 -0 -0 0 -0 0 -0 0 0 0 0 0 -0 0 -0 0 0 -0 0 0 0 -0 0 0 0 0 0 0 0 0 0 0 0 0 0 0 0 0 0 0 0 0 0 0 0 -0 -0 -0 -0 0 0 0 0 0
0 0 0 0 0 0 0 0 0 0 0 0 0 -0 -0 -0 0 -0 -0 0 0 -0 0 0 0 0 0 0 0 -0 0 -0 -0 -0 0 0 -0 -0 0 0 0 0 0 0 -0 -0 0 -0 -0 -0 0 0 0 0
0 0 0 0 0 0 0 0 0 0 0 0 0 -0 0 0 -0 -0 -0 -0 -0 -0 0 0 0 0 0 0 0 -0 -0 -0 -0 -0 -0 -0 0 0 0 0 0 0 0 0 -0 -0 -0 -0 0 0 0 0 0 0
0 0 0 0 0 0 0 0 0 0 0 0 0 0 0 0 -0 -0 0 -0 0 -0 0 0 0 -0 -0 -0 -0 -0 -0 -0 -0 0 0 -0 0 0 0 0 0 0 0 0 -0 -0 -0 -0 0 0 0 0 0 0
0 0 0 0 0 0 0 0 0 0 0 0 0 0 0 0 0 -0 -0 -0 -0 0 0 0 0 0 -0 -0 -0 0 0 0 0 0 0 0 0 0 -0 0 0 0 0 0 0 -0 -0 0 0 0 0 0 0 0
0 0 0 0 0 -0 -0 0 0 0 0 0 0 0 0 0 -0 -0 -0 0 0 0 0 0 0 0 -0 0 0 0 0 0 0 0 0 0 0 0 0 0 0 0 0 0 0 0 0 0 0 0 0 0 0 0
0 0 0 0 0 -0 0 0 0 0 0 0 0 0 0 0 -0 -0 0 -0 0 0 0 0 0 0 0 0 0 0 0 -0 0 0 -0 0 0 0 0 0 0 0 0 0 0 0 0 0 0 0 0 0 0 0
0 0 0 0 0 0 -0 0 0 0 0 0 0 0 0 0 0 0 -0 -0 0 0 0 0 0 0 0 0 0 0 -0 0 0 -0 0 0 0 0 0 0 -0 -0 -0 -0 0 0 0 0 0 0 0 0 0 0
0 0 0 0 0 0 -0 0 0 0 0 0 0 0 -0 -0 0 -0 0 0 0 -0 0 0 0 0 0 0 0 0 -0 -0 -0 -0 0 0 0 0 0 -0 -0 -0 -0 0 0 0 0 0 0 0 0 0 0 0
0 0 0 -0 0 0 0 0 0 0 0 0 0 0 0 0 0 -0 -0 0 0 0 0 0 0 0 0 0 -0 -0 -0 -0 -0 -0 -0 -0 -0 -0 -0 -0 -0 0 0 0 -0 0 0 0 0 0 0 0 0 0
0 -0 0 0 0 0 0 0 0 0 0 0 0 0 -0 0 0 0 -0 0 0 0 0 0 0 0 0 0 0 0 -0 0 -0 -0 -0 -0 -0 -0 -0 0 0 0 0 0 0 0 0 0 0 0 0 0 0 0
0 0 0 0 0 0 0 -0 -0 -0 -0 -0 0 0 0 -0 -0 0 0 0 0 0 0 0 -0 0 0 0 0 0 0 0 0 0 -0 -0 -0 0 0 0 0 0 0 0 0 0 0 0 0 0 0 0 0 0
0 0 0 0 0 0 0 -0 -0 -0 -0 -0 -0 -0 -0 -0 -0 0 0 0 0 0 0 0 0 0 0 0 0 0 0 0 0 0 0 0 0 0 0 0 0 0 0 0 0 0 0 0 0 0 0 0 0 0
0 0 0 0 0 0 -0 -0 -0 -0 -0 -0 -0 -0 -0 -0 0 0 0 0 0 0 0 0 0 0 0 0 0 0 0 0 0 0 0 0 0 0 0 0 0 0 0 0 0 0 0 0 0 0 0 0 0 0
Wind_Speed_500mb
50 49 43 43 50 54 49 42 41 41 45 43 44 38 36 35 40 40 34 24 16 13 40 16 16 25 29 16 10 11 7 3 8 3 4 6 7 11 21 19 26 22 13 14 16 9 7 15 12 4 18 29 36 35
47 45 42 47 54 47 39 43 42 43 47 47 47 36 33 34 39 36 33 23 30 20 34 48 47 40 40 35 12 16 10 6 7 6 7 5 6 7 25 10 13 14 11 8 7 9 16 18 24 30 30 39 32 33
44 41 41 46 49 37 41 43 44 46 46 46 43 33 33 38 36 34 36 28 26 16 36 13 11 14 17 10 13 11 10 19 13 14 10 5 5 8 6 10 14 11 10 7 16 17 21 26 27 37 42 44 35 28
41 41 42 46 45 40 42 45 48 48 48 47 42 31 34 37 36 35 34 34 25 10 8 8 12 24 25 19 18 20 23 22 18 12 8 6 5 7 6 12 12 5 12 12 15 27 30 23 46 48 43 35 32 30
40 42 43 46 48 40 46 47 48 49 50 42 38 35 39 42 35 34 32 21 15 14 7 21 32 13 4 13 10 8 11 13 13 6 6 5 6 11 7 6 11 9 8 9 8 24 18 32 39 40 38 37 34 32
39 42 45 50 48 40 48 48 48 47 48 38 37 41 41 37 33 20 8 5 3 16 7 6 15 20 6 9 14 10 5 5 7 7 7 9 9 12 3 5 16 21 24 18 21 23 36 45 43 37 39 37 32 31
41 41 43 49 41 43 48 51 51 49 39 34 38 38 31 21 12 3 4 18 12 6 5 6 5 13 11 14 11 8 7 5 3 4 5 5 9 15 6 5 13 6 22 16 14 30 42 50 42 41 42 39 36 33
41 39 39 48 45 46 51 48 48 47 30 35 32 29 13 12 7 8 19 15 7 6 6 4 2 2 6 5 3 3 2 3 7 7 1 4 3 7 3 18 13 5 3 13 19 23 34 46 49 42 40 38 35 33
38 38 40 49 43 44 41 44 49 31 33 34 25 12 6 5 7 12 18 5 3 3 6 4 6 4 2 3 7 1 3 3 3 2 1 3 4 4 3 3 11 9 2 22 39 42 44 46 44 40 36 31 30 29
38 36 41 44 39 37 41 41 45 38 33 23 16 7 6 7 25 8 5 2 2 2 3 3 2 3 2 3 1 6 5 2 3 5 1 3 2 6 6 4 14 15 19 19 34 34 35 43 40 35 29 25 25 26
36 36 40 35 35 37 38 44 39 35 22 20 13 6 17 20 6 6 6 7 5 4 5 2 12 4 4 5 5 2 4 2 3 5 1 5 3 4 17 16 15 19 15 13 11 27 34 38 35 32 28 25 25 26
35 36 40 31 32 34 42 36 34 20 20 25 20 17 12 6 8 7 5 3 2 5 5 4 5 5 5 4 5 4 5 4 5 6 3 5 8 12 26 20 15 21 23 20 27 42 42 39 30 27 26 26 26 26
35 37 36 29 29 34 34 29 20 24 27 9 5 6 6 6 5 5 5 5 5 14 12 10 2 2 5 3 3 1 4 2 0 5 2 4 14 24 35 30 21 22 35 37 34 36 37 34 32 30 28 26 26 25
36 32 30 26 24 31 25 26 20 22 9 6 6 7 5 6 11 8 9 6 10 9 15 13 4 8 8 4 3 5 4 6 4 6 6 9 30 36 35 33 34 34 42 46 42 37 34 30 29 29 29 28 26 24
35 29 23 19 26 28 29 20 16 16 7 5 8 7 6 12 11 11 9 7 5 10 9 7 5 4 2 4 1 5 2 6 4 7 9 24 27 34 32 34 38 40 36 35 36 33 32 32 34 35 31 28 25 23
35 22 12 24 30 25 25 20 13 6 5 4 5 7 10 7 8 8 4 8 3 2 3 4 3 4 6 3 3 4 6 4 6 7 12 22 26 31 25 30 37 35 37 34 32 34 37 37 36 34 31 28 25 23
27 9 29 38 30 23 19 14 7 5 4 3 8 13 12 7 10 8 11 8 1 2 4 3 6 3 5 5 8 4 2 6 12 14 13 12 19 27 27 39 41 38 33 34 37 38 37 35 32 31 29 26 25 23
27 26 33 35 25 21 8 5 6 5 5 6 5 5 8 2 7 7 4 1 2 4 4 3 10 4 3 3 1 6 12 10 11 10 24 33 30 22 34 37 34 33 35 37 37 36 33 31 27 25 25 23 21 20
30 31 16 12 15 11 6 4 4 6 7 9 10 8 9 7 7 6 5 5 2 3 4 7 5 5 5 6 7 14 8 3 21 40 45 39 29 30 33 33 33 35 38 37 36 32 27 21 21 21 19 16 15 13
24 13 6 6 4 4 5 6 5 7 9 8 15 11 16 13 6 4 2 4 2 1 1 2 3 7 12 27 21 17 33 45 45 38 32 29 32 33 33 35 38 38 37 33 30 27 24 22 20 18 15 14 12 11
6 9 10 6 6 7 7 5 7 7 10 10 11 18 12 12 7 3 5 5 4 2 1 5 12 25 10 11 27 39 37 32 30 33 37 36 34 34 34 34 36 32 31 29 27 25 21 20 18 14 16 13 12 9
9 7 4 3 5 5 8 7 8 13 9 12 17 9 8 5 9 2 9 1 4 6 7 10 17 12 7 8 36 24 22 16 22 30 32 32 34 34 33 33 31 32 28 25 23 22 20 18 16 16 14 12 9 9
4 4 5 4 5 4 8 5 6 5 6 5 8 7 6 2 1 4 7 7 8 9 17 16 9 8 3 15 26 21 19 24 29 29 29 30 31 31 33 30 29 28 26 22 20 20 20 19 18 14 14 13 8 6
6 3 5 5 8 6 3 6 7 8 7 6 5 5 1 2 6 3 4 5 2 10 13 11 4 4 6 21 23 21 21 18 23 25 26 31 33 31 29 28 25 23 21 21 21 21 20 17 16 13 11 8 6 4
4 6 7 9 8 7 7 6 8 8 5 3 5 3 4 6 2 3 3 6 7 12 13 8 9 9 12 20 22 23 20 23 23 25 26 29 31 28 24 22 21 22 24 25 24 23 20 16 12 10 8 6 6 5
6 6 7 6 5 7 5 4 3 3 4 4 5 6 9 6 4 2 4 3 2 8 8 4 12 7 9 16 25 26 23 24 27 27 26 26 26 26 27 27 27 25 22 20 21 20 17 14 10 10 8 9 13 6
6 9 11 12 8 8 10 12 11 3 2 1 4 5 5 6 3 5 2 3 3 5 7 1 12 14 13 14 22 25 22 23 24 25 20 19 18 19 23 24 25 23 22 20 18 17 16 13 10 10 7 6 5 5
11 7 8 3 11 11 11 8 3 2 1 1 2 4 3 5 4 2 7 5 5 6 6 7 26 17 7 13 21 23 23 26 29 26 25 22 21 18 19 22 25 28 22 19 16 14 12 11 11 10 10 9 7 4
10 9 6 13 5 7 8 5 2 4 3 6 6 3 4 3 2 11 11 10 8 7 8 7 25 11 5 17 23 24 26 26 21 25 23 23 20 16 20 22 25 23 25 32 28 16 14 13 12 12 12 10 9 6
15 16 10 9 8 8 2 4 5 6 8 9 12 19 19 11 9 12 13 12 10 9 12 16 27 13 14 22 26 23 20 18 19 22 22 25 24 25 24 24 23 21 21 19 15 17 14 11 11 11 11 9 8 7
2 8 11 14 7 2 3 5 7 11 13 11 16 20 23 16 17 14 12 11 12 10 10 19 38 12 15 21 22 23 19 16 14 14 19 25 26 27 27 27 18 14 16 14 13 13 13 11 10 10 11 10 9 9
7 14 11 5 5 6 6 7 6 7 7 7 8 10 7 8 8 8 4 9 10 7 8 20 34 38 24 29 19 16 20 17 17 19 20 22 26 29 26 16 18 18 18 16 13 12 13 12 12 10 11 11 9 7
14 14 7 5 3 6 7 8 5 6 8 7 9 10 9 6 3 3 5 12 11 13 8 12 23 31 36 39 35 28 20 21 22 22 26 28 32 29 24 21 20 19 17 14 13 14 14 15 19 18 20 17 16 10
Wind_Direction_500mb
329 331 336 338 337 332 332 334 333 332 332 329 327 330 331 331 331 330 309 310 299 269 289 275 327 307 293 326 343 353 315 306 298 354 32 349 312 68 107 125 156 152 148 196 161 170 159 118 167 273 131 118 100 99
331 334 337 338 333 333 330 330 334 332 331 331 326 324 333 333 332 327 312 309 319 272 271 285 289 282 279 279 280 303 301 14 327 325 26 3 7 27 114 113 126 159 163 181 135 105 109 84 104 108 113 105 109 113
331 331 332 332 331 331 331 333 332 331 332 332 330 323 329 333 333 323 315 314 321 295 309 278 293 289 307 306 271 272 346 2 325 332 320 11 9 34 109 107 135 98 114 109 141 146 122 125 125 107 104 98 101 108
327 327 327 328 328 326 329 330 329 330 330 329 325 318 325 326 324 321 309 311 300 282 283 328 335 322 293 289 274 251 277 321 301 326 328 332 30 34 39 92 110 45 160 161 123 120 118 121 116 116 112 114 115 109
328 326 325 328 325 321 326 326 327 328 330 327 325 319 319 320 313 313 311 305 265 232 299 297 315 324 345 315 286 225 268 309 317 345 2 19 36 345 67 285 139 176 124 150 168 156 123 136 126 125 127 121 118 112
326 326 329 326 324 324 326 329 329 328 329 327 326 323 322 321 317 317 312 308 36 225 300 298 324 3 19 85 88 75 32 344 340 324 52 28 9 319 320 100 89 110 92 80 101 110 129 133 130 131 128 124 117 113
323 324 327 328 323 325 326 326 326 326 326 328 325 324 326 338 355 21 326 302 288 190 267 280 325 358 351 27 66 55 44 54 4 359 54 52 29 302 272 62 91 121 127 127 89 114 136 133 129 134 125 122 117 113
323 324 326 328 321 323 326 329 331 327 324 329 328 327 327 332 325 344 345 341 247 225 277 289 336 318 68 39 267 311 30 29 52 30 68 79 223 280 264 121 101 60 131 186 126 120 137 138 137 132 131 127 120 116
324 322 325 325 323 326 331 336 338 338 335 332 337 355 340 349 307 334 319 297 201 299 307 296 338 41 352 30 6 283 27 86 66 51 81 275 189 201 0 90 156 153 126 122 108 129 142 140 138 142 138 133 126 122
324 322 327 327 326 325 330 333 333 334 341 4 6 337 328 321 310 318 352 274 260 228 245 270 258 59 331 141 111 332 179 162 128 76 225 216 226 186 124 111 148 142 111 130 140 136 139 139 145 144 140 133 129 127
326 324 329 327 326 327 331 330 329 337 2 354 335 311 311 314 293 243 257 238 159 230 171 59 39 22 55 348 40 5 312 277 214 107 227 176 168 151 160 147 124 160 141 106 108 145 142 139 138 129 124 123 127 127
326 327 329 323 324 328 336 339 343 349 324 313 301 309 325 280 247 260 235 154 23 60 27 29 36 14 2 27 13 352 327 299 59 109 248 179 130 145 140 127 127 119 132 146 123 119 122 126 128 121 132 132 127 127
325 326 327 321 328 337 335 339 341 336 334 316 324 279 276 272 290 303 14 55 42 357 19 4 342 17 326 326 36 329 289 340 130 241 180 88 135 146 127 133 117 120 122 122 124 126 125 128 130 129 127 127 129 128
320 324 324 319 322 337 333 333 334 339 338 315 327 279 288 339 19 12 355 345 341 329 327 345 346 5 344 31 7 311 299 315 246 205 67 70 104 123 130 132 131 125 125 130 123 123 124 123 124 123 123 125 124 122
320 322 308 307 323 327 334 328 328 339 315 305 308 318 352 345 315 311 286 289 280 304 315 342 9 335 320 273 155 301 242 248 320 57 95 95 121 131 128 127 131 127 125 124 127 125 124 125 123 119 118 116 113 111
325 342 322 303 318 322 331 329 332 318 279 292 337 290 318 320 326 355 304 252 214 349 331 320 324 263 219 197 248 227 303 23 63 38 85 98 115 121 134 136 132 131 130 130 128 129 128 126 123 119 113 108 106 104
329 326 307 311 311 319 324 334 311 277 284 267 236 254 251 275 272 298 316 344 37 202 294 238 258 3 210 210 201 202 341 41 29 58 108 126 123 148 142 127 127 132 131 132 133 132 128 127 124 119 114 110 107 103
303 304 302 305 314 343 325 312 293 281 265 263 313 352 250 183 232 262 251 292 352 337 288 284 299 308 232 225 330 6 29 353 304 216 146 132 118 140 132 129 133 134 135 135 134 132 130 130 128 126 123 121 112 105
298 302 302 285 315 335 316 283 312 288 280 308 289 297 314 315 300 298 243 153 37 335 286 299 274 290 12 14 345 309 290 66 107 133 144 139 138 133 131 129 131 135 137 136 135 134 136 138 137 136 134 132 120 114
299 291 290 285 255 277 289 279 293 267 280 287 295 307 293 291 302 306 275 156 69 173 260 254 281 302 259 290 289 293 139 126 122 130 137 138 138 134 133 135 134 134 134 133 133 134 134 134 136 137 141 136 125 112
310 251 304 235 238 247 276 281 256 260 288 272 284 304 283 271 307 292 217 180 117 182 278 285 324 343 68 121 134 137 141 142 138 137 137 139 145 141 139 136 140 142 141 141 141 141 143 139 141 142 134 128 127 128
264 262 324 246 248 256 263 252 279 294 273 279 286 266 271 264 227 31 324 176 48 78 13 359 343 9 156 114 156 153 163 156 139 135 134 142 146 147 146 150 150 150 147 146 145 152 146 146 144 140 144 139 129 119
223 282 274 254 264 254 268 273 268 249 265 273 261 248 216 272 61 39 56 355 40 9 350 354 8 60 91 142 142 135 141 148 146 145 155 154 149 150 150 151 154 153 151 152 155 152 150 154 149 144 146 143 145 121
220 267 263 247 225 261 230 238 229 253 259 251 258 289 301 57 169 95 151 164 86 1 353 353 28 264 193 153 138 137 145 148 144 149 148 146 147 152 155 154 156 157 159 156 155 154 146 153 158 148 155 163 171 174
254 236 223 257 238 241 229 227 218 219 249 228 283 271 356 296 271 215 115 108 23 2 350 9 24 140 188 163 143 146 150 150 155 149 153 153 150 146 143 142 144 153 155 152 152 153 155 146 156 167 173 187 188 197
251 228 200 258 223 239 252 255 265 280 29 315 18 357 351 316 267 110 63 61 16 2 351 15 112 121 136 153 150 146 146 147 146 144 150 153 161 164 161 160 157 159 164 166 166 166 166 168 170 172 187 193 205 197
256 248 229 250 269 272 272 254 235 246 24 43 296 359 341 282 4 67 73 325 235 302 332 229 186 91 104 123 141 144 143 151 159 150 144 153 162 169 174 176 177 174 172 174 178 180 182 183 182 181 181 178 186 194
249 277 250 251 256 267 272 273 210 323 317 293 284 244 221 311 35 8 348 305 270 298 318 219 177 119 116 156 151 153 148 139 148 136 124 126 132 138 143 158 165 171 170 170 175 179 185 190 189 189 189 191 199 191
230 234 249 246 268 274 263 261 339 137 281 276 301 346 325 337 297 304 308 296 258 251 274 218 182 159 175 160 163 164 160 159 182 183 181 170 161 151 158 160 148 153 175 181 172 166 165 171 171 173 173 179 184 165
248 209 220 236 206 235 175 347 348 316 300 296 281 284 289 302 282 290 286 278 243 235 250 193 168 179 178 172 170 173 182 188 187 192 195 187 178 164 157 155 150 151 162 183 233 223 216 194 199 172 159 157 171 167
235 224 244 252 268 251 316 288 289 288 285 276 269 267 274 292 293 277 268 237 207 230 221 192 183 162 173 170 173 175 167 169 172 164 164 157 156 158 154 151 156 169 168 169 163 159 165 152 170 173 170 177 183 163
232 227 237 260 272 271 279 275 269 266 281 271 270 236 248 276 266 188 230 191 187 208 221 195 191 190 168 150 130 129 146 155 147 150 165 163 159 159 163 165 155 158 157 158 161 170 169 178 179 171 168 170 166 170
234 254 241 261 261 263 235 229 263 272 240 241 256 240 240 255 267 188 139 194 191 204 211 200 202 202 203 203 208 210 193 164 161 166 169 162 155 152 148 150 150 148 150 156 158 163 166 170 176 183 187 192 202 203
Wind_Speed_850mb
50 49 43 43 50 54 49 42 41 41 45 43 44 38 36 35 40 40 34 24 16 13 40 16 16 25 29 16 10 11 7 3 8 3 4 6 7 11 21 19 26 22 13 14 16 9 7 15 12 4 18 29 36 35
47 45 42 47 54 47 39 43 42 43 47 47 47 36 33 34 39 36 33 23 30 20 34 48 47 40 40 35 12 16 10 6 7 6 7 5 6 7 25 10 13 14 11 8 7 9 16 18 24 30 30 39 32 33
44 41 41 46 49 37 41 43 44 46 46 46 43 33 33 38 36 34 36 28 26 16 36 13 11 14 17 10 13 11 10 19 13 14 10 5 5 8 6 10 14 11 10 7 16 17 21 26 27 37 42 44 35 28
41 41 42 46 45 40 42 45 48 48 48 47 42 31 34 37 36 35 34 34 25 10 8 8 12 24 25 19 18 20 23 22 18 12 8 6 5 7 6 12 12 5 12 12 15 27 30 23 46 48 43 35 32 30
40 42 43 46 48 40 46 47 48 49 50 42 38 35 39 42 35 34 32 21 15 14 7 21 32 13 4 13 10 8 11 13 13 6 6 5 6 11 7 6 11 9 8 9 8 24 18 32 39 40 38 37 34 32
39 42 45 50 48 40 48 48 48 47 48 38 37 41 41 37 33 20 8 5 3 16 7 6 15 20 6 9 14 10 5 5 7 7 7 9 9 12 3 5 16 21 24 18 21 23 36 45 43 37 39 37 32 31
41 41 43 49 41 43 48 51 51 49 39 34 38 38 31 21 12 3 4 18 12 6 5 6 5 13 11 14 11 8 7 5 3 4 5 5 9 15 6 5 13 6 22 16 14 30 42 50 42 41 42 39 36 33
41 39 39 48 45 46 51 48 48 47 30 35 32 29 13 12 7 8 19 15 7 6 6 4 2 2 6 5 3 3 2 3 7 7 1 4 3 7 3 18 13 5 3 13 19 23 34 46 49 42 40 38 35 33
38 38 40 49 43 44 41 44 49 31 33 34 25 12 6 5 7 12 18 5 3 3 6 4 6 4 2 3 7 1 3 3 3 2 1 3 4 4 3 3 11 9 2 22 39 42 44 46 44 40 36 31 30 29
38 36 41 44 39 37 41 41 45 38 33 23 16 7 6 7 25 8 5 2 2 2 3 3 2 3 2 3 1 6 5 2 3 5 1 3 2 6 6 4 14 15 19 19 34 34 35 43 40 35 29 25 25 26
36 36 40 35 35 37 38 44 39 35 22 20 13 6 17 20 6 6 6 7 5 4 5 2 12 4 4 5 5 2 4 2 3 5 1 5 3 4 17 16 15 19 15 13 11 27 34 38 35 32 28 25 25 26
35 36 40 31 32 34 42 36 34 20 20 25 20 17 12 6 8 7 5 3 2 5 5 4 5 5 5 4 5 4 5 4 5 6 3 5 8 12 26 20 15 21 23 20 27 42 42 39 30 27 26 26 26 26
35 37 36 29 29 34 34 29 20 24 27 9 5 6 6 6 5 5 5 5 5 14 12 10 2 2 5 3 3 1 4 2 0 5 2 4 14 24 35 30 21 22 35 37 34 36 37 34 32 30 28 26 26 25
36 32 30 26 24 31 25 26 20 22 9 6 6 7 5 6 11 8 9 6 10 9 15 13 4 8 8 4 3 5 4 6 4 6 6 9 30 36 35 33 34 34 42 46 42 37 34 30 29 29 29 28 26 24
35 29 23 19 26 28 29 20 16 16 7 5 8 7 6 12 11 11 9 7 5 10 9 7 5 4 2 4 1 5 2 6 4 7 9 24 27 34 32 34 38 40 36 35 36 33 32 32 34 35 31 28 25 23
35 22 12 24 30 25 25 20 13 6 5 4 5 7 10 7 8 8 4 8 3 2 3 4 3 4 6 3 3 4 6 4 6 7 12 22 26 31 25 30 37 35 37 34 32 34 37 37 36 34 31 28 25 23
27 9 29 38 30 23 19 14 7 5 4 3 8 13 12 7 10 8 11 8 1 2 4 3 6 3 5 5 8 4 2 6 12 14 13 12 19 27 27 39 41 38 33 34 37 38 37 35 32 31 29 26 25 23
27 26 33 35 25 21 8 5 6 5 5 6 5 5 8 2 7 7 4 1 2 4 4 3 10 4 3 3 1 6 12 10 11 10 24 33 30 22 34 37 34 33 35 37 37 36 33 31 27 25 25 23 21 20
30 31 16 12 15 11 6 4 4 6 7 9 10 8 9 7 7 6 5 5 2 3 4 7 5 5 5 6 7 14 8 3 21 40 45 39 29 30 33 33 33 35 38 37 36 32 27 21 21 21 19 16 15 13
24 13 6 6 4 4 5 6 5 7 9 8 15 11 16 13 6 4 2 4 2 1 1 2 3 7 12 27 21 17 33 45 45 38 32 29 32 33 33 35 38 38 37 33 30 27 24 22 20 18 15 14 12 11
6 9 10 6 6 7 7 5 7 7 10 10 11 18 12 12 7 3 5 5 4 2 1 5 12 25 10 11 27 39 37 32 30 33 37 36 34 34 34 34 36 32 31 29 27 25 21 20 18 14 16 13 12 9
9 7 4 3 5 5 8 7 8 13 9 12 17 9 8 5 9 2 9 1 4 6 7 10 17 12 7 8 36 24 22 16 22 30 32 32 34 34 33 33 31 32 28 25 23 22 20 18 16 16 14 12 9 9
4 4 5 4 5 4 8 5 6 5 6 5 8 7 6 2 1 4 7 7 8 9 17 16 9 8 3 15 26 21 19 24 29 29 29 30 31 31 33 30 29 28 26 22 20 20 20 19 18 14 14 13 8 6
6 3 5 5 8 6 3 6 7 8 7 6 5 5 1 2 6 3 4 5 2 10 13 11 4 4 6 21 23 21 21 18 23 25 26 31 33 31 29 28 25 23 21 21 21 21 20 17 16 13 11 8 6 4
4 6 7 9 8 7 7 6 8 8 5 3 5 3 4 6 2 3 3 6 7 12 13 8 9 9 12 20 22 23 20 23 23 25 26 29 31 28 24 22 21 22 24 25 24 23 20 16 12 10 8 6 6 5
6 6 7 6 5 7 5 4 3 3 4 4 5 6 9 6 4 2 4 3 2 8 8 4 12 7 9 16 25 26 23 24 27 27 26 26 26 26 27 27 27 25 22 20 21 20 17 14 10 10 8 9 13 6
6 9 11 12 8 8 10 12 11 3 2 1 4 5 5 6 3 5 2 3 3 5 7 1 12 14 13 14 22 25 22 23 24 25 20 19 18 19 23 24 25 23 22 20 18 17 16 13 10 10 7 6 5 5
11 7 8 3 11 11 11 8 3 2 1 1 2 4 3 5 4 2 7 5 5 6 6 7 26 17 7 13 21 23 23 26 29 26 25 22 21 18 19 22 25 28 22 19 16 14 12 11 11 10 10 9 7 4
10 9 6 13 5 7 8 5 2 4 3 6 6 3 4 3 2 11 11 10 8 7 8 7 25 11 5 17 23 24 26 26 21 25 23 23 20 16 20 22 25 23 25 32 28 16 14 13 12 12 12 10 9 6
15 16 10 9 8 8 2 4 5 6 8 9 12 19 19 11 9 12 13 12 10 9 12 16 27 13 14 22 26 23 20 18 19 22 22 25 24 25 24 24 23 21 21 19 15 17 14 11 11 11 11 9 8 7
2 8 11 14 7 2 3 5 7 11 13 11 16 20 23 16 17 14 12 11 12 10 10 19 38 12 15 21 22 23 19 16 14 14 19 25 26 27 27 27 18 14 16 14 13 13 13 11 10 10 11 10 9 9
7 14 11 5 5 6 6 7 6 7 7 7 8 10 7 8 8 8 4 9 10 7 8 20 34 38 24 29 19 16 20 17 17 19 20 22 26 29 26 16 18 18 18 16 13 12 13 12 12 10 11 11 9 7
14 14 7 5 3 6 7 8 5 6 8 7 9 10 9 6 3 3 5 12 11 13 8 12 23 31 36 39 35 28 20 21 22 22 26 28 32 29 24 21 20 19 17 14 13 14 14 15 19 18 20 17 16 10
Wind_Direction_850mb
329 331 336 338 337 332 332 334 333 332 332 329 327 330 331 331 331 330 309 310 299 269 289 275 327 307 293 326 343 353 315 306 298 354 32 349 312 68 107 125 156 152 148 196 161 170 159 118 167 273 131 118 100 99
331 334 337 338 333 333 330 330 334 332 331 331 326 324 333 333 332 327 312 309 319 272 271 285 289 282 279 279 280 303 301 14 327 325 26 3 7 27 114 113 126 159 163 181 135 105 109 84 104 108 113 105 109 113
331 331 332 332 331 331 331 333 332 331 332 332 330 323 329 333 333 323 315 314 321 295 309 278 293 289 307 306 271 272 346 2 325 332 320 11 9 34 109 107 135 98 114 109 141 146 122 125 125 107 104 98 101 108
327 327 327 328 328 326 329 330 329 330 330 329 325 318 325 326 324 321 309 311 300 282 283 328 335 322 293 289 274 251 277 321 301 326 328 332 30 34 39 92 110 45 160 161 123 120 118 121 116 116 112 114 115 109
328 326 325 328 325 321 326 326 327 328 330 327 325 319 319 320 313 313 311 305 265 232 299 297 315 324 345 315 286 225 268 309 317 345 2 19 36 345 67 285 139 176 124 150 168 156 123 136 126 125 127 121 118 112
326 326 329 326 324 324 326 329 329 328 329 327 326 323 322 321 317 317 312 308 36 225 300 298 324 3 19 85 88 75 32 344 340 324 52 28 9 319 320 100 89 110 92 80 101 110 129 133 130 131 128 124 117 113
323 324 327 328 323 325 326 326 326 326 326 328 325 324 326 338 355 21 326 302 288 190 267 280 325 358 351 27 66 55 44 54 4 359 54 52 29 302 272 62 91 121 127 127 89 114 136 133 129 134 125 122 117 113
323 324 326 328 321 323 326 329 331 327 324 329 328 327 327 332 325 344 345 341 247 225 277 289 336 318 68 39 267 311 30 29 52 30 68 79 223 280 264 121 101 60 131 186 126 120 137 138 137 132 131 127 120 116
324 322 325 325 323 326 331 336 338 338 335 332 337 355 340 349 307 334 319 297 201 299 307 296 338 41 352 30 6 283 27 86 66 51 81 275 189 201 0 90 156 153 126 122 108 129 142 140 138 142 138 133 126 122
324 322 327 327 326 325 330 333 333 334 341 4 6 337 328 321 310 318 352 274 260 228 245 270 258 59 331 141 111 332 179 162 128 76 225 216 226 186 124 111 148 142 111 130 140 136 139 139 145 144 140 133 129 127
326 324 329 327 326 327 331 330 329 337 2 354 335 311 311 314 293 243 257 238 159 230 171 59 39 22 55 348 40 5 312 277 214 107 227 176 168 151 160 147 124 160 141 106 108 145 142 139 138 129 124 123 127 127
326 327 329 323 324 328 336 339 343 349 324 313 301 309 325 280 247 260 235 154 23 60 27 29 36 14 2 27 13 352 327 299 59 109 248 179 130 145 140 127 127 119 132 146 123 119 122 126 128 121 132 132 127 127
325 326 327 321 328 337 335 339 341 336 334 316 324 279 276 272 290 303 14 55 42 357 19 4 342 17 326 326 36 329 289 340 130 241 180 88 135 146 127 133 117 120 122 122 124 126 125 128 130 129 127 127 129 128
320 324 324 319 322 337 333 333 334 339 338 315 327 279 288 339 19 12 355 345 341 329 327 345 346 5 344 31 7 311 299 315 246 205 67 70 104 123 130 132 131 125 125 130 123 123 124 123 124 123 123 125 124 122
320 322 308 307 323 327 334 328 328 339 315 305 308 318 352 345 315 311 286 289 280 304 315 342 9 335 320 273 155 301 242 248 320 57 95 95 121 131 128 127 131 127 125 124 127 125 124 125 123 119 118 116 113 111
325 342 322 303 318 322 331 329 332 318 279 292 337 290 318 320 326 355 304 252 214 349 331 320 324 263 219 197 248 227 303 23 63 38 85 98 115 121 134 136 132 131 130 130 128 129 128 126 123 119 113 108 106 104
329 326 307 311 311 319 324 334 311 277 284 267 236 254 251 275 272 298 316 344 37 202 294 238 258 3 210 210 201 202 341 41 29 58 108 126 123 148 142 127 127 132 131 132 133 132 128 127 124 119 114 110 107 103
303 304 302 305 314 343 325 312 293 281 265 263 313 352 250 183 232 262 251 292 352 337 288 284 299 308 232 225 330 6 29 353 304 216 146 132 118 140 132 129 133 134 135 135 134 132 130 130 128 126 123 121 112 105
298 302 302 285 315 335 316 283 312 288 280 308 289 297 314 315 300 298 243 153 37 335 286 299 274 290 12 14 345 309 290 66 107 133 144 139 138 133 131 129 131 135 137 136 135 134 136 138 137 136 134 132 120 114
299 291 290 285 255 277 289 279 293 267 280 287 295 307 293 291 302 306 275 156 69 173 260 254 281 302 259 290 289 293 139 126 122 130 137 138 138 134 133 135 134 134 134 133 133 134 134 134 136 137 141 136 125 112
310 251 304 235 238 247 276 281 256 260 288 272 284 304 283 271 307 292 217 180 117 182 278 285 324 343 68 121 134 137 141 142 138 137 137 139 145 141 139 136 140 142 141 141 141 141 143 139 141 142 134 128 127 128
264 262 324 246 248 256 263 252 279 294 273 279 286 266 271 264 227 31 324 176 48 78 13 359 343 9 156 114 156 153 163 156 139 135 134 142 146 147 146 150 150 150 147 146 145 152 146 146 144 140 144 139 129 119
223 282 274 254 264 254 268 273 268 249 265 273 261 248 216 272 61 39 56 355 40 9 350 354 8 60 91 142 142 135 141 148 146 145 155 154 149 150 150 151 154 153 151 152 155 152 150 154 149 144 146 143 145 121
220 267 263 247 225 261 230 238 229 253 259 251 258 289 301 57 169 95 151 164 86 1 353 353 28 264 193 153 138 137 145 148 144 149 148 146 147 152 155 154 156 157 159 156 155 154 146 153 158 148 155 163 171 174
254 236 223 257 238 241 229 227 218 219 249 228 283 271 356 296 271 215 115 108 23 2 350 9 24 140 188 163 143 146 150 150 155 149 153 153 150 146 143 142 144 153 155 152 152 153 155 146 156 167 173 187 188 197
251 228 200 258 223 239 252 255 265 280 29 315 18 357 351 316 267 110 63 61 16 2 351 15 112 121 136 153 150 146 146 147 146 144 150 153 161 164 161 160 157 159 164 166 166 166 166 168 170 172 187 193 205 197
256 248 229 250 269 272 272 254 235 246 24 43 296 359 341 282 4 67 73 325 235 302 332 229 186 91 104 123 141 144 143 151 159 150 144 153 162 169 174 176 177 174 172 174 178 180 182 183 182 181 181 178 186 194
249 277 250 251 256 267 272 273 210 323 317 293 284 244 221 311 35 8 348 305 270 298 318 219 177 119 116 156 151 153 148 139 148 136 124 126 132 138 143 158 165 171 170 170 175 179 185 190 189 189 189 191 199 191
230 234 249 246 268 274 263 261 339 137 281 276 301 346 325 337 297 304 308 296 258 251 274 218 182 159 175 160 163 164 160 159 182 183 181 170 161 151 158 160 148 153 175 181 172 166 165 171 171 173 173 179 184 165
248 209 220 236 206 235 175 347 348 316 300 296 281 284 289 302 282 290 286 278 243 235 250 193 168 179 178 172 170 173 182 188 187 192 195 187 178 164 157 155 150 151 162 183 233 223 216 194 199 172 159 157 171 167
235 224 244 252 268 251 316 288 289 288 285 276 269 267 274 292 293 277 268 237 207 230 221 192 183 162 173 170 173 175 167 169 172 164 164 157 156 158 154 151 156 169 168 169 163 159 165 152 170 173 170 177 183 163
232 227 237 260 272 271 279 275 269 266 281 271 270 236 248 276 266 188 230 191 187 208 221 195 191 190 168 150 130 129 146 155 147 150 165 163 159 159 163 165 155 158 157 158 161 170 169 178 179 171 168 170 166 170
234 254 241 261 261 263 235 229 263 272 240 241 256 240 240 255 267 188 139 194 191 204 211 200 202 202 203 203 208 210 193 164 161 166 169 162 155 152 148 150 150 148 150 156 158 163 166 170 176 183 187 192 202 203